Weather in Varvarovka

Russia / Penza Oblast     52°57′33″N   43°54′40″E
temp.,
°C
wind,
m/s
gust,
m/s
humid.,
%
clouds,
%
prec.,
mm/h
press.,
hPa
HPBL,
m
4 march, thu
thu400:00−6wsw5129682 0.0 1012290
03:00−4wsw6129689 0.1 1010465
06:00−2wsw71395100 0.3 1008775
09:00−2wsw91594100 0.4 1006800
12:000wsw101594100 0.2 1004780
15:000wsw101688100 0.3 1003909
18:000wsw81490100 0.0 10021014
21:00−1wsw61295100 0.2 1002735
5 march, fri
fri500:00−1wsw61193100 0.1 1001548
03:00−2wsw51196100 0.3 1001494
06:00−2w51097100 0.7 1002526
09:00−3n4596100 1.3 1004342
12:00−2nnw469397 0.3 1007535
15:00−3nw468883 0.4 1009558
18:00−7w23920 0.0 101121
21:00−9wnw349425 0.0 101443
6 march, sat
sat600:00−10wnw349476 0.0 101546
03:00−11wnw239487 0.0 101628
06:00−11nnw2293100 0.0 101621
09:00−10nne2394100 0.0 101695
12:00−7ne2390100 0.0 1016236
15:00−7ne2391100 0.0 1015250
18:00−12ne229233 0.0 101521
21:00−14e118328 0.0 101620
7 march, sun
sun700:00−14sw117981 0.0 101521
03:00−13sw349288 0.0 101671
06:00−13sw479797 0.1 1016128
09:00−11wsw599697 0.1 1015299
12:00−8sw7128567 0.0 1012698
15:00−6sw9158483 0.0 1010932
18:00−6sw101884100 0.1 10061112
21:00−4sw111794100 1.1 10031060
8 march, mon
mon800:00−4w61283100 1.5 1003886
03:00−9w4693100 1.5 1004115
06:00−11ssw348584 0.0 100458
09:00−6ssw6109592 0.1 1001461
12:00−3w5897100 2.1 999608
15:00−6wnw111774100 2.9 10001273
18:00−10w8168181 0.0 1005908
21:00−10w7158974 0.1 1010769